FW3916 Weather Reports


time (UTC)temp
F
wind
direction
speed
knots
gust
knots
rain 1hr
in
rain 24hr
in
rain mn
in
humidity
%
barometer
mb
20260504035547 58 0 0.9 3.5 0.00 0.00 0.00 51 1011.2
20260504035049 58 0 0.0 3.5 0.00 0.00 0.00 51 1011.2
20260504034610 58 265 0.9 3.5 0.00 0.00 0.00 51 1011.3
20260504034042 58 0 0.9 4.3 0.00 0.00 0.00 51 1011.3
20260504033545 58 0 0.9 4.3 0.00 0.00 0.00 51 1011.4
20260504033100 58 280 0.9 4.3 0.00 0.00 0.00 51 1011.3
20260504032543 58 0 0.9 2.6 0.00 0.00 0.00 51 1011.5
20260504032048 58 229 0.9 3.5 0.00 0.00 0.00 50 1011.5
20260504031547 58 146 0.9 3.5 0.00 0.00 0.00 50 1011.6
20260504031043 58 84 0.9 5.2 0.00 0.00 0.00 50 1011.7
20260504030543 58 264 0.9 5.2 0.00 0.00 0.00 50 1011.6
20260504030051 58 115 1.7 4.3 0.00 0.00 0.00 49 1011.7
20260504025544 58 260 0.9 5.2 0.00 0.00 0.00 49 1011.7
20260504025047 58 107 0.9 7.0 0.00 0.00 0.00 49 1011.8
20260504024554 58 191 1.7 7.0 0.00 0.00 0.00 49 1011.7
20260504024046 58 255 0.9 5.2 0.00 0.00 0.00 49 1011.7
20260504023543 58 75 0.9 5.2 0.00 0.00 0.00 49 1011.5
20260504023055 58 324 0.9 3.5 0.00 0.00 0.00 50 1011.6
20260504022547 58 97 0.9 4.3 0.00 0.00 0.00 49 1011.4
20260504022049 58 113 0.9 4.3 0.00 0.00 0.00 49 1011.4
20260504021552 58 219 1.7 4.3 0.00 0.00 0.00 49 1011.5
20260504021045 59 207 0.0 3.5 0.00 0.00 0.00 49 1011.5
20260504020545 59 211 0.0 3.5 0.00 0.00 0.00 48 1011.5
20260504020103 59 110 1.7 4.3 0.00 0.00 0.00 48 1011.5
20260504015545 59 120 0.9 4.3 0.00 0.00 0.00 48 1011.5
20260504015045 59 242 0.9 4.3 0.00 0.00 0.00 48 1011.4
20260504014553 59 89 0.9 3.5 0.00 0.00 0.00 47 1011.5
20260504014043 59 258 0.9 3.5 0.00 0.00 0.00 47 1011.5
20260504013543 60 170 0.0 7.0 0.00 0.00 0.00 47 1011.5
20260504013053 60 0 1.7 7.0 0.00 0.00 0.00 47 1011.4
20260504012545 60 286 0.9 5.2 0.00 0.00 0.00 47 1011.4
20260504012042 60 288 0.9 5.2 0.00 0.00 0.00 47 1011.4
20260504011548 60 262 0.9 6.1 0.00 0.00 0.00 46 1011.5
20260504011044 60 0 0.9 6.1 0.00 0.00 0.00 46 1011.3
20260504010544 60 143 1.7 6.1 0.00 0.00 0.00 46 1011.3
20260504010047 60 209 0.9 8.7 0.00 0.00 0.00 46 1011.2
20260504005543 60 154 1.7 8.7 0.00 0.00 0.00 46 1011.2
20260504005045 60 204 1.7 7.0 0.00 0.00 0.00 47 1011.0
20260504004551 60 198 2.6 7.0 0.00 0.00 0.00 47 1011.1
20260504004045 61 169 1.7 7.0 0.00 0.00 0.00 47 1011.2
20260504003544 61 255 1.7 7.0 0.00 0.00 0.00 46 1011.4
20260504003051 61 209 1.7 6.1 0.00 0.00 0.00 44 1011.7
20260504002545 62 0 1.7 5.2 0.00 0.00 0.00 43 1012.2
20260504002045 62 245 0.9 5.2 0.00 0.00 0.00 42 1012.4
20260504001559 62 254 0.9 5.2 0.00 0.00 0.00 43 1012.3
20260504001042 62 147 0.9 5.2 0.00 0.00 0.00 42 1012.4
20260504000545 62 243 1.7 5.2 0.00 0.00 0.00 42 1012.2
20260504000056 62 308 0.9 3.5 0.00 0.00 0.00 42 1012.2
20260503235543 62 240 0.9 5.2 0.00 0.00 0.00 41 1012.1
20260503235043 62 84 1.7 5.2 0.00 0.00 0.00 41 1012.2
20260503234552 62 207 0.9 5.2 0.00 0.00 0.00 40 1012.4
20260503234047 62 231 0.9 5.2 0.00 0.00 0.00 41 1012.6
20260503233545 62 331 1.7 5.2 0.00 0.00 0.00 41 1012.8
20260503233053 62 0 0.9 5.2 0.00 0.00 0.00 40 1012.7
20260503232542 62 133 1.7 5.2 0.00 0.00 0.00 40 1012.6
20260503232042 62 238 0.9 7.0 0.00 0.00 0.00 41 1012.2
20260503231549 62 230 1.7 7.0 0.00 0.00 0.00 41 1011.9
20260503231042 62 273 1.7 9.6 0.00 0.00 0.00 41 1011.9
20260503230542 62 301 1.7 11.3 0.00 0.00 0.00 41 1011.9
20260503225545 62 193 2.6 8.7 0.00 0.00 0.00 40 1012.0
20260503225041 63 261 1.7 7.0 0.00 0.00 0.00 40 1012.1
20260503224559 63 240 0.9 7.0 0.00 0.00 0.00 41 1012.1
20260503224042 63 268 0.9 7.8 0.00 0.00 0.00 39 1012.2
20260503223543 63 281 1.7 7.8 0.00 0.00 0.00 39 1012.3
20260503223048 63 132 1.7 7.8 0.00 0.00 0.00 39 1012.2
20260503222545 63 200 1.7 9.6 0.00 0.00 0.00 39 1012.3
20260503222043 63 275 2.6 9.6 0.00 0.00 0.00 38 1012.3
20260503221552 63 81 2.6 9.6 0.00 0.00 0.00 39 1012.2
20260503221042 63 259 4.3 9.6 0.00 0.00 0.00 38 1012.3
20260503220543 63 264 4.3 9.6 0.00 0.00 0.00 38 1012.5
20260503220055 64 209 2.6 8.7 0.00 0.00 0.00 37 1012.5
20260503215541 63 223 1.7 8.7 0.00 0.00 0.00 37 1012.5
20260503215042 63 255 2.6 10.4 0.00 0.00 0.00 38 1012.4
20260503214554 63 78 1.7 10.4 0.00 0.00 0.00 37 1012.4
20260503214044 63 277 3.5 10.4 0.00 0.00 0.00 38 1012.7
20260503213545 63 283 2.6 11.3 0.00 0.00 0.00 38 1012.8
20260503213101 63 85 2.6 13.9 0.00 0.00 0.00 37 1012.7
20260503212546 63 296 4.3 13.9 0.00 0.00 0.00 37 1013.0
20260503212042 63 83 3.5 9.6 0.00 0.00 0.00 38 1013.1
20260503211611 63 272 2.6 7.0 0.00 0.00 0.00 38 1012.9
20260503211042 63 79 2.6 7.0 0.00 0.00 0.00 38 1013.0
20260503210547 63 226 1.7 7.8 0.00 0.00 0.00 39 1013.5
20260503210053 63 91 1.7 7.8 0.00 0.00 0.00 37 1013.6
20260503205542 63 207 2.6 7.8 0.00 0.00 0.00 37 1013.5
20260503205043 63 27 1.7 7.8 0.00 0.00 0.00 38 1014.0
20260503204559 63 185 0.9 7.0 0.00 0.00 0.00 36 1014.4
20260503204042 63 183 0.9 8.7 0.00 0.00 0.00 38 1014.4
20260503203542 63 316 0.9 8.7 0.00 0.00 0.00 36 1014.8
20260503203056 64 278 1.7 8.7 0.00 0.00 0.00 35 1014.7
20260503202545 64 219 1.7 8.7 0.00 0.00 0.00 36 1015.0
20260503202043 65 276 2.6 7.8 0.00 0.00 0.00 35 1015.2
20260503201552 65 109 0.9 7.8 0.00 0.00 0.00 35 1015.0
20260503201046 65 1 0.9 8.7 0.00 0.00 0.00 36 1014.7
20260503200542 64 133 2.6 8.7 0.00 0.00 0.00 34 1014.7
20260503200106 65 197 2.6 7.8 0.00 0.00 0.00 33 1014.7
20260503195542 65 1 2.6 11.3 0.00 0.00 0.00 36 1014.6
20260503195043 64 226 2.6 11.3 0.00 0.00 0.00 34 1014.7
20260503194603 64 89 4.3 11.3 0.00 0.00 0.00 34 1014.7
20260503194044 64 254 3.5 9.6 0.00 0.00 0.00 35 1014.8
20260503193542 64 308 4.3 9.6 0.00 0.00 0.00 34 1015.1
20260503193104 64 98 2.6 11.3 0.00 0.00 0.00 35 1015.0
20260503192542 64 262 2.6 13.9 0.00 0.00 0.00 34 1015.0
20260503192045 63 164 4.3 13.9 0.00 0.00 0.00 35 1015.3
20260503191604 63 253 4.3 10.4 0.00 0.00 0.00 36 1015.1
20260503191045 64 136 4.3 10.4 0.00 0.00 0.00 34 1015.3
20260503190548 64 240 3.5 8.7 0.00 0.00 0.00 33 1015.3
20260503190056 64 139 4.3 8.7 0.00 0.00 0.00 38 1015.4
20260503185542 64 258 2.6 7.8 0.00 0.00 0.00 33 1015.5
20260503185044 64 213 1.7 6.1 0.00 0.00 0.00 35 1015.7
20260503184613 63 188 2.6 7.8 0.00 0.00 0.00 34 1015.8
20260503184043 63 350 2.6 9.6 0.00 0.00 0.00 38 1015.7
20260503183546 63 212 2.6 9.6 0.00 0.00 0.00 35 1015.9
20260503183055 63 203 1.7 8.7 0.00 0.00 0.00 36 1016.0
20260503182542 63 206 2.6 8.7 0.00 0.00 0.00 35 1016.5
20260503182045 63 215 2.6 7.8 0.00 0.00 0.00 35 1016.5
20260503181612 63 178 2.6 9.6 0.00 0.00 0.00 35 1016.7
20260503181045 62 199 2.6 9.6 0.00 0.00 0.00 37 1016.8
20260503180545 63 94 2.6 9.6 0.00 0.00 0.00 36 1016.8
20260503180115 62 280 2.6 9.6 0.00 0.00 0.00 37 1017.2
20260503175541 62 257 3.5 11.3 0.00 0.00 0.00 34 1017.3
20260503175042 62 265 3.5 11.3 0.00 0.00 0.00 36 1017.3
20260503174558 62 108 1.7 7.0 0.00 0.00 0.00 35 1017.4
20260503174045 62 208 2.6 7.0 0.00 0.00 0.00 35 1017.6
20260503173544 62 240 1.7 7.8 0.00 0.00 0.00 37 1017.6
20260503173102 62 236 1.7 11.3 0.00 0.00 0.00 35 1017.6
20260503172544 62 253 4.3 11.3 0.00 0.00 0.00 37 1017.5
20260503172042 61 260 2.6 13.0 0.00 0.00 0.00 36 1017.5
20260503171554 61 176 3.5 13.0 0.00 0.00 0.00 36 1017.5
20260503171042 61 270 3.5 10.4 0.00 0.00 0.00 35 1017.8
20260503170543 61 98 1.7 9.6 0.00 0.00 0.00 36 1017.6
20260503150544 57 230 4.3 9.6 0.00 0.00 0.00 36 1019.2
20260503150106 56 189 2.6 9.6 0.00 0.00 0.00 37 1019.3
20260503131041 45 176 0.9 6.1 0.00 0.00 0.00 63 1019.5
20260503130541 44 234 1.7 6.1 0.00 0.00 0.00 68 1019.6
20260503110543 31 0 0.0 0.0 0.00 0.00 0.00 95 1019.0
20260503081551 32 0 0.0 0.0 0.00 0.00 0.00 94 1018.8
20260503081045 33 0 0.0 0.0 0.00 0.00 0.00 94 1018.7
20260503080545 33 0 0.0 0.0 0.00 0.00 0.00 94 1018.6
20260503072545 33 0 0.0 0.0 0.00 0.00 0.00 93 1018.5
20260503072043 33 0 0.0 0.0 0.00 0.00 0.00 93 1018.5
20260503071600 33 0 0.0 0.0 0.00 0.00 0.00 93 1018.6
20260503071047 34 0 0.0 0.0 0.00 0.00 0.00 93 1018.5
20260503070544 34 0 0.0 0.0 0.00 0.00 0.00 92 1018.7
20260503055040 35 0 0.0 0.0 0.00 0.00 0.00 90 1019.0
20260503054553 35 0 0.0 0.0 0.00 0.00 0.00 90 1019.1
20260503054043 35 0 0.0 0.0 0.00 0.00 0.00 90 1019.2
20260503053540 35 0 0.0 0.0 0.00 0.00 0.00 90 1019.2
20260503053049 35 0 0.0 0.0 0.00 0.00 0.00 90 1019.3
20260503052544 36 0 0.0 0.0 0.00 0.00 0.00 90 1019.3
20260503052043 36 0 0.0 0.0 0.00 0.00 0.00 89 1019.2
20260503051558 36 0 0.0 0.0 0.00 0.00 0.00 89 1019.3
20260503051043 36 0 0.0 0.0 0.00 0.00 0.00 89 1019.2
20260503050546 36 0 0.0 0.0 0.00 0.00 0.00 88 1019.1
20260503050056 36 0 0.0 0.0 0.00 0.00 0.00 88 1019.1
20260503045544 36 0 0.0 0.0 0.00 0.00 0.00 88 1019.1
20260503045041 37 0 0.0 0.0 0.00 0.00 0.00 88 1019.2
20260503044608 37 0 0.0 0.0 0.00 0.00 0.00 87 1019.3
20260503044041 37 0 0.0 0.0 0.00 0.00 0.00 87 1019.4
20260503043541 37 0 0.0 0.0 0.00 0.00 0.00 86 1019.2
20260503043057 37 0 0.0 0.0 0.00 0.00 0.00 85 1019.2
20260503042542 37 0 0.0 0.0 0.00 0.00 0.00 85 1019.2
20260503042044 37 0 0.0 0.9 0.00 0.00 0.00 85 1019.1
20260503041554 37 0 0.0 0.9 0.00 0.00 0.00 84 1019.1
20260503041043 38 0 0.0 0.9 0.00 0.00 0.00 84 1019.0
20260503040543 38 0 0.0 0.0 0.00 0.00 0.00 83 1019.2
20260503040100 38 0 0.0 0.0 0.00 0.00 0.00 82 1019.1